Skip Page Navigation
NASA JPL Caltech
NASA Logo - Jet Propulsion Laboratory + View the NASA Portal
+ Near-Earth Object (NEO) Program
Search JPL
JPL Home Earth Solar System Stars & Galaxies Technology
JPL Solar System Dynamics
BODIES ORBITS EPHEMERIDES TOOLS PHYSICAL DATA DISCOVERY FAQ SITE MAP
JPL Small-Body Database Browser
Search: [ help ]  
11696 Capen (1998 FD74)
Classification: Main-belt Asteroid          SPK-ID: 2011696
Ephemeris | Orbit Diagram | Orbital Elements | Physical Parameters | Discovery Circumstances | Close-Approach Data ]

[ show orbit diagram ]
Orbital Elements at Epoch 2457000.5 (2014-Dec-09.0) TDB
Reference: JPL 13 (heliocentric ecliptic J2000)
 Element Value Uncertainty (1-sigma)   Units 
e .1438625932390896 5.8996e-08  
a 2.205641823704096 1.1135e-08 AU
q 1.888332471189429 1.3408e-07 AU
i 3.496426790591443 5.3304e-06 deg
node 66.3334339805489 8.8482e-05 deg
peri 121.2745944054249 9.032e-05 deg
M 36.25417949769191 1.9853e-05 deg
tp 2456880.008478276518
(2014-Aug-10.50847828)
6.5734e-05 JED
period 1196.467508614146
3.28
9.06e-06
2.48e-08
d
yr
n .3008857302084063 2.2784e-09 deg/d
Q 2.522951176218762 1.2736e-08 AU
  Orbit Determination Parameters
   # obs. used (total)      1075  
   data-arc span      10644 days (29.14 yr)  
   first obs. used      1985-04-15  
   last obs. used      2014-06-06  
   planetary ephem.      DE431  
   SB-pert. ephem.      SB431-BIG16  
   condition code      0  
   fit RMS      .51722  
   data source      ORB  
   producer      Otto Matic  
   solution date      2015-Mar-09 14:27:59  

Additional Information
 Earth MOID = .893095 AU 
 T_jup = 3.645 
[ show covariance matrix ]

Ephemeris | Orbit Diagram | Orbital Elements | Physical Parameters | Discovery Circumstances | Close-Approach Data ]

Physical Parameter Table
Parameter Symbol Value Units Sigma Reference Notes
absolute magnitude H 14.2 mag n/a MPO279639  

11696 Capen           Discovered 1998 Mar. 22 by the Lowell Observatory Near-Earth Object Search at the Anderson Mesa Station.
Charles ("Chick") Franklin Capen (1926-1986) was best known for his observations of the planets, particularly Mars. He worked at the Lowell Observatory for many years as an observer and tour guide.
NOTE: some special characters may not display properly (any characters within {} are an attempt to place the proper accent above a character)
Reference: 20010109/MPCPages.arcLast Updated: 2009-05-11

[ show close-approach data ]
Alternate Designations
 1998 FD74 = 1985 GG1 = 1988 BS1 
Ephemeris | Orbit Diagram | Orbital Elements | Physical Parameters | Discovery Circumstances | Close-Approach Data ]
ABOUT SSD CREDITS/AWARDS PRIVACY/COPYRIGHT GLOSSARY LINKS
FirstGov 2015-May-27 17:48 UT
(server date/time)  
NASA Home Page
Site Manager:   Ryan S. Park
Webmaster  Alan B. Chamberlin